Location: Newark
(7.1028°S, 35.3258°W)
Time: 10:16:22
(UTC+00:00)

Vanguard 3 - Pass Details

Date: 19 February 2020
Orbit: 508 x 3262 km, 33.3° (Epoch: 28 March)

Event Time Altitude Azimuth Distance (km) Brightness Sun altitude
Rises 08:54:42 0° 251° (WSW) 2,765 9.4 6.2°
Reaches altitude 10° 08:57:15 10° 264° (W) 1,752 8.3 6.8°
Maximum altitude 09:00:30 28° 325° (NW) 974 7.3 7.6°
Drops below altitude 10° 09:03:50 10° 26° (NNE) 1,804 9.2 8.4°
Sets 09:06:30 0° 38° (NE) 2,868 10.4 9.0°
